Regional Weather Roundup
Issued by NWS Green Bay, WI

Home | Current Version | Previous Version | Text Only | Print | Product List | Glossary On
Versions: 1 2 3 4 5 6 7 8 9 10 11 12 13 14 15 16 17 18 19 20 21 22 23 24 25 26 27 28 29 30 31 32 33 34 35 36 37 38 39 40 41 42 43 44 45 46 47 48 49 50
000
ASUS43 KGRB 191210
RWRGRB

NORTH-CENTRAL AND NORTHEAST WISCONSIN REGIONAL WEATHER ROUNDUP
NATIONAL WEATHER SERVICE GREEN BAY WI
700 AM CDT FRI SEP 19 2014

WIZ005-009-010>012-018-019-191300-
NORTH CENTRAL WISCONSIN

CITY           SKY/WX    TMP DP  RH WIND       PRES   REMARKS
IRONWOOD       CLOUDY    54  52  94 S10G18    29.95S
MANITOWISH WTR CLOUDY    51  51  99 S10       30.02S
ARBOR VITAE    CLOUDY    55  52  90 S10       30.05R FOG
EAGLE RIVER    CLOUDY    50  49  98 S8        30.05F FOG
LAND O LAKES   CLOUDY    52  50  93 S7        30.05S FOG
RHINELANDER    CLOUDY    49  48  97 S6        30.07F FOG
PHILLIPS       MOCLDY    51  50  95 S12       30.02S
ANTIGO         CLOUDY    47  47 100 S10       30.10F FOG
TOMAHAWK       MOCLDY    49  47  96 S3        30.07S FOG
MERRILL        CLOUDY    49  49 100 S5        30.08S FOG
$$

WIZ013-073-191300-
NORTHEAST WISCONSIN

CITY           SKY/WX    TMP DP  RH WIND       PRES   REMARKS
IRON MOUNTAIN  CLOUDY    48  46  93 S9        30.09S FOG
MARINETTE      CLOUDY    55  54  94 S12       30.12F
OCONTO         CLOUDY    52  52 100 SW5       30.12F
$$

WIZ017-030-035>037-045-191300-
CENTRAL WISCONSIN

CITY           SKY/WX    TMP DP  RH WIND       PRES   REMARKS
MEDFORD        MOCLDY    48  48  97 S7        30.07R FOG
WAUSAU         CLOUDY    50  49  96 S6        30.09R FOG
MOSINEE        CLOUDY    48  48 100 SE8       30.10S FOG
MARSHFIELD     CLOUDY    51  50  96 S9        30.08R FOG
WISC RAPIDS    CLOUDY    50  49  96 S5        30.11S FOG
STEVENS POINT  CLOUDY    47  47  99 S6        30.11S FOG
WAUPACA        FOG       51  50  95 SE3       30.13S VSB 1/4
SHAWANO        FOG       49  48  95 SW3       30.14R VSB 1/4
CLINTONVILLE   FOG       46  46 100 CALM      30.13R VSB 1/4
$$

WIZ038-039-048-051-191300-
FOX VALLEY

CITY           SKY/WX    TMP DP  RH WIND       PRES   REMARKS
NWS GREEN BAY  CLOUDY    52  52 100 S5        30.14R FOG
APPLETON         N/A     54  54 100 S8        30.14S FOG
OSHKOSH        CLOUDY    54  54 100 S8        30.13S FOG
FOND DU LAC    PTCLDY    53  51  93 S6        30.13S FOG
$$

WIZ022-050-052-191300-
EAST CENTRAL WISCONSIN

CITY           SKY/WX    TMP DP  RH WIND       PRES   REMARKS
STURGEON BAY   CLOUDY    55  52  88 S12       30.14F
MANITOWOC      CLOUDY    57  56  96 S9        30.15S FOG
SHEBOYGAN      FOG       46  46 100 CALM      30.15S VSB<1/4
$$

LMZ563-521-522-541>543-191300-
LAKESHORE

STATION/POSITION TIME  TEMP    WIND        PRES    VSBY  WAVE
                       AIR SEA DIR/SP/G                  HT/PER
                 (UTC) (F)     (DEG/KT/KT) (MB)    (MI)  (FT/S)
SHEBOYGAN LKSHOR 1200   58 50  150/ 15/ 15 1021.2F
KEWAUNEE LKSHORE 1200   54     180/  6/  7 1019.9F
NORTHPORT PIER   1200   57     150/ 10/ 16 1020.7S
N MID LAKE BUOY  1200   55 58  190/ 19/ 21 1021.3R         4/ 5
S GREEN BAY BUOY 1100   57     VRB 12/ 14  1021.6R
STURGEON BAY CG  1200   55 54  190/  7     1021.6          4
CHAMBERS ISLAND  1200   57     160/  5/ 10 1020.3S
MENOMINEE LKSHOR 1200   56     170/  9/ 13 1020.6F
$$



USA.gov is the U.S. government's official web portal to all federal, state and local government web resources and services.